Temperature
7 6 6 7 7 8 8 7 7 8 9 9 8 8 9 10 9 9 9 9 9 9 10 10 10 10 10 10 10 10 11 11 11 11 11 11 11 11 11 12 12 12 12 12
6 6 7 8 8 8 8 7 7 8 9 9 8 8 8 9 9 9 9 9 9 9 9 9 9 9 9 10 10 10 10 10 10 10 10 10 11 11 11 11 11 11 12 12
6 7 8 8 8 8 8 7 7 8 8 8 8 7 8 8 9 9 9 9 9 9 9 9 9 9 9 9 9 9 9 10 10 10 10 10 10 10 10 11 11 11 11 11
7 7 8 8 8 8 7 8 8 8 7 6 7 6 7 8 8 8 8 8 8 8 8 8 8 8 9 9 9 9 9 9 9 9 9 9 9 10 10 10 10 10 11 11
6 7 7 7 8 8 8 8 8 8 7 6 7 6 7 7 7 7 7 8 8 8 8 8 8 8 8 8 8 8 9 9 9 9 9 9 9 9 9 9 10 10 10 10
7 7 8 8 8 8 8 7 7 6 6 6 7 6 6 6 7 7 7 8 8 8 8 8 8 8 8 8 8 8 8 8 8 8 8 8 9 9 9 9 9 9 10 10
6 7 8 8 7 7 7 6 5 6 6 6 7 6 6 7 7 7 7 7 8 7 8 8 8 8 8 8 8 8 8 8 8 8 8 8 8 8 8 9 9 9 9 9
5 6 7 8 8 7 7 6 6 6 6 6 6 6 7 8 8 8 8 8 7 7 7 7 7 7 7 7 7 7 7 7 7 8 8 8 8 8 8 8 8 8 8 9
5 5 7 8 8 8 7 6 6 5 5 5 6 6 7 8 7 7 7 7 7 7 7 7 7 7 7 7 7 7 7 7 7 7 7 7 7 7 7 8 8 8 8 8
6 5 6 7 8 7 7 6 5 5 6 6 6 6 7 7 6 6 6 6 7 7 7 7 7 7 7 7 7 7 7 7 7 7 7 7 7 7 7 7 7 8 8 8
6 5 5 6 6 7 6 6 5 5 5 5 6 7 7 7 7 6 6 7 7 7 7 7 6 6 6 7 7 6 6 6 6 7 7 7 7 7 7 7 7 7 7 7
6 5 4 5 6 7 7 6 5 5 5 5 4 6 7 7 7 6 6 7 7 7 7 6 6 6 6 6 6 6 6 6 6 6 6 6 6 6 7 7 6 6 6 7
6 5 4 6 6 6 6 6 6 5 4 4 4 6 7 6 6 7 7 7 7 7 7 6 6 6 6 6 6 6 6 6 6 6 6 6 6 6 6 6 6 6 6 6
6 4 4 6 6 6 5 6 6 5 4 4 4 6 6 6 6 6 7 7 7 7 6 6 6 6 6 6 6 6 6 6 5 5 6 6 6 6 6 6 6 5 6 6
5 4 4 4 5 5 5 5 5 5 4 4 5 5 6 6 6 6 7 7 6 6 6 6 6 6 6 6 6 6 5 5 5 5 5 5 5 5 5 5 5 5 5 5
4 4 4 4 5 5 5 5 5 5 5 5 5 6 6 7 7 7 7 6 6 7 7 6 6 6 6 6 6 5 5 5 5 5 5 5 5 5 5 5 5 5 5 5
4 4 4 3 4 4 4 5 5 5 5 5 5 6 6 6 6 6 7 7 7 7 7 7 6 6 6 6 6 5 5 5 5 5 5 5 5 5 5 5 5 5 4 5
3 3 3 3 3 5 7 7 6 5 6 5 6 6 6 6 7 8 8 8 7 7 7 7 7 6 6 6 6 5 5 5 5 5 5 4 4 4 4 4 4 4 4 4
3 4 3 3 3 4 6 6 6 6 6 6 6 6 6 7 6 7 8 8 8 8 8 7 7 7 6 6 6 5 5 5 5 5 5 4 4 4 4 4 4 4 4 4
3 3 3 3 3 5 7 7 7 7 6 7 6 5 6 6 4 6 9 8 8 8 7 7 7 6 6 6 6 5 5 5 5 5 4 4 4 4 4 4 4 4 4 4
2 2 2 2 3 4 5 6 7 6 7 8 8 7 7 5 7 8 8 8 8 8 7 7 6 6 6 6 5 5 5 5 5 4 4 4 4 3 3 3 3 3 3 3
3 2 2 2 2 4 6 5 5 6 8 9 9 9 8 8 8 8 8 8 8 7 7 7 6 6 6 6 5 5 5 5 4 4 4 4 3 3 3 3 3 3 3 3
3 3 3 3 5 6 7 7 9 9 8 9 9 9 8 8 8 8 8 8 7 7 7 6 6 6 6 6 5 5 5 4 4 4 4 3 3 3 3 3 3 3 3 2
3 3 3 2 4 5 6 7 8 8 8 8 8 8 7 7 7 7 7 7 7 7 6 6 6 6 6 5 5 5 5 4 4 4 3 3 3 3 2 2 2 2 2 2
3 3 2 3 4 5 7 8 8 8 8 8 8 8 7 7 7 7 7 7 7 7 6 6 6 6 6 5 5 5 4 4 4 4 3 3 3 2 2 2 2 2 2 1
3 4 3 5 6 5 6 8 8 8 7 7 7 7 7 7 7 7 6 6 6 6 6 6 6 5 5 5 5 5 4 4 4 3 3 3 2 2 2 2 1 1 1 1
Wind_Speed
3 4 2 2 2 2 2 2 3 4 3 2 6 10 11 7 5 5 5 5 4 4 3 2 2 2 2 2 2 2 2 3 2 1 1 1 1 1 1 1 1 2 3 4
5 3 3 2 0 1 0 0 2 4 2 3 6 10 10 7 6 6 7 6 5 4 2 2 2 2 2 2 2 2 2 3 2 1 1 1 1 1 1 1 0 1 2 2
2 3 2 1 2 1 1 2 2 3 4 3 4 8 6 5 4 4 5 5 5 5 5 4 3 2 2 2 3 3 3 3 3 2 1 1 1 1 1 1 0 1 1 2
2 2 1 1 1 0 2 3 2 2 2 4 1 5 7 5 4 5 5 4 4 4 4 4 3 3 2 3 3 3 3 3 2 2 2 2 1 2 2 1 1 1 1 2
2 1 1 1 2 1 3 3 3 3 2 3 3 4 8 3 5 7 6 5 4 3 4 4 3 3 3 3 3 3 3 3 2 2 2 2 2 1 1 1 1 1 1 2
2 2 1 2 2 2 2 3 3 1 1 3 5 5 7 4 6 6 5 4 4 4 3 3 2 2 2 2 2 2 2 2 1 1 1 2 2 1 1 1 2 1 1 1
5 3 1 0 2 3 3 4 3 4 2 5 3 4 8 7 6 5 5 5 4 4 3 2 2 2 2 2 2 2 1 2 1 1 1 2 2 2 3 3 2 2 1 1
3 5 3 1 1 1 1 3 3 2 4 5 3 6 7 5 3 2 3 3 3 3 2 3 3 3 2 2 2 1 1 1 1 1 1 1 1 2 1 2 2 2 2 2
1 4 3 2 2 2 1 1 3 2 2 4 6 6 7 1 1 1 2 2 3 3 3 3 2 2 2 2 2 2 1 1 1 1 1 1 1 1 1 1 1 1 1 1
2 4 5 3 1 0 2 2 2 2 2 4 6 5 5 5 5 4 4 5 5 5 4 3 2 2 2 2 1 1 1 1 1 0 1 1 1 1 2 2 2 1 1 1
1 2 5 2 3 4 3 2 3 2 3 3 5 7 5 6 6 6 7 6 6 6 5 4 3 2 1 1 1 0 0 0 1 1 2 2 2 2 2 2 1 1 1 2
1 2 4 6 5 3 5 6 5 3 4 4 4 8 5 5 5 5 6 6 5 5 5 4 3 2 1 1 1 1 1 1 1 1 2 2 2 2 2 2 1 1 1 1
1 1 4 5 2 1 3 4 5 4 2 4 4 8 3 3 4 4 5 5 5 5 5 4 4 3 3 2 2 1 1 1 1 1 2 2 2 2 2 1 1 1 1 1
2 3 6 7 6 3 5 6 6 6 5 6 10 12 10 7 7 6 6 6 6 6 6 5 5 4 4 3 3 2 2 2 2 2 2 2 1 1 1 1 1 1 1 1
2 4 7 11 12 9 12 13 11 13 12 11 11 11 15 10 9 8 7 6 6 6 6 7 6 5 4 4 3 3 3 2 3 3 3 2 2 2 1 1 1 1 1 1
2 4 5 8 9 10 13 16 15 15 14 16 16 17 14 9 8 7 8 7 8 8 9 8 7 6 6 6 5 4 4 3 3 4 3 3 2 2 2 1 1 1 1 1
3 3 3 7 7 8 10 11 12 8 9 10 15 14 8 7 8 8 8 9 9 10 9 9 8 8 7 7 6 6 5 4 4 4 3 3 3 2 2 2 2 1 1 1
6 4 3 5 6 8 8 3 7 9 10 12 12 10 8 9 8 8 8 9 9 9 9 9 8 7 6 6 5 5 5 5 5 4 4 4 3 3 2 2 2 1 1 1
9 6 4 4 6 10 10 5 5 7 8 10 13 13 10 6 5 7 8 9 10 9 9 8 8 7 6 6 6 5 5 5 5 5 4 4 4 3 3 3 2 2 1 1
6 6 5 5 5 8 8 3 2 2 7 7 8 9 7 3 3 7 6 6 7 7 6 6 6 5 6 6 6 6 6 6 6 6 5 4 4 4 4 3 2 1 1 1
4 5 9 9 9 10 9 4 3 3 7 4 6 7 6 8 9 6 4 5 6 6 6 6 6 6 7 7 7 7 7 7 7 5 4 4 4 4 4 3 2 2 2 1
9 7 8 7 9 12 6 6 7 9 4 4 5 6 8 9 8 7 6 6 5 5 5 6 6 6 6 7 8 8 8 7 5 5 5 4 4 4 3 3 3 2 2 2
10 11 8 11 12 7 6 9 8 5 6 6 6 7 8 8 8 7 6 6 6 6 6 6 7 7 6 7 9 10 8 6 6 5 5 4 4 3 3 4 4 3 2 2
7 7 7 10 14 13 12 11 10 8 10 10 9 8 7 9 9 8 7 6 6 6 6 6 7 7 7 7 8 9 7 7 7 7 6 5 4 4 3 3 3 3 3 3
9 7 8 12 13 11 11 13 14 13 10 10 9 9 9 9 9 9 8 8 7 7 6 6 8 9 9 8 8 7 7 8 8 7 6 6 5 5 4 4 4 4 4 5
10 12 11 15 13 10 10 9 9 10 12 12 10 10 9 10 11 10 9 8 8 7 7 7 8 9 8 8 8 7 8 9 9 7 7 6 5 5 4 4 2 3 4 5
Wind_Direction
29 63 77 217 191 171 167 190 258 261 255 236 247 261 269 266 244 240 237 233 237 243 268 296 300 305 327 330 333 328 317 313 327 326 306 269 260 277 288 262 215 211 196 186
46 18 273 249 280 62 103 261 288 300 295 256 265 268 264 252 233 224 222 225 226 239 265 290 304 317 309 298 306 310 296 293 290 272 266 236 244 252 241 241 278 210 169 174
86 273 297 52 33 14 327 227 252 276 324 314 311 297 269 269 235 229 220 218 218 221 231 251 269 283 289 285 285 287 285 285 285 279 283 4 28 345 311 276 277 280 152 162
356 311 340 34 332 100 289 262 261 284 340 293 281 289 283 268 256 243 233 230 230 232 228 234 245 260 266 270 277 281 285 285 278 253 206 190 200 232 244 231 220 243 111 144
324 322 357 306 286 237 251 286 281 267 252 293 242 235 286 284 256 251 238 234 234 233 223 226 234 237 246 266 282 285 289 283 268 244 209 195 204 234 244 202 180 195 156 136
270 285 238 254 293 262 296 351 348 42 82 281 235 204 281 251 241 251 239 233 235 231 227 227 239 247 263 281 291 291 297 292 272 228 207 199 189 181 180 211 196 192 158 148
341 326 297 336 358 3 45 56 23 357 329 261 247 210 255 260 248 228 226 225 230 229 226 230 240 253 272 286 288 289 281 281 265 218 197 196 184 177 190 206 197 180 167 172
355 313 287 261 199 232 292 131 152 232 262 289 295 241 257 283 269 221 200 200 205 222 229 229 236 238 253 261 260 279 270 268 253 209 199 186 169 164 187 191 182 176 190 194
302 284 297 260 232 160 153 190 180 175 287 280 275 280 297 288 325 236 219 214 233 239 240 239 245 245 255 261 260 250 249 272 279 215 161 134 125 119 123 111 109 145 169 148
185 280 290 292 29 279 158 154 101 160 269 284 289 273 259 264 259 254 247 243 246 251 249 242 242 237 254 249 252 268 249 258 286 99 102 90 89 114 119 108 112 128 130 135
169 244 300 311 217 211 171 176 174 190 207 226 285 276 234 238 237 235 239 238 237 241 238 234 238 232 238 250 195 128 289 37 52 65 78 80 76 83 97 105 107 118 122 127
208 171 272 261 255 217 191 195 170 187 241 219 244 271 273 254 241 227 238 242 242 240 232 224 222 221 219 230 195 169 165 137 124 102 93 91 87 86 85 84 80 107 126 133
160 147 315 330 324 286 236 217 195 184 196 213 227 263 291 290 267 246 244 246 244 238 231 221 213 212 211 212 205 185 182 166 153 122 109 102 96 94 92 89 78 91 103 91
155 192 204 230 242 240 255 246 214 189 211 236 234 257 278 278 269 264 255 246 243 237 230 221 220 220 214 208 202 192 195 180 165 145 136 142 154 149 144 130 106 101 101 100
152 240 244 254 261 258 254 252 232 221 219 229 249 252 264 261 254 251 249 242 239 238 231 222 220 219 212 208 208 200 193 187 174 161 164 185 183 162 144 134 119 105 106 108
204 249 275 275 264 265 265 256 240 235 232 239 256 269 263 256 249 248 244 235 233 236 233 226 221 216 213 210 207 202 197 193 178 179 188 191 176 159 157 154 133 113 106 97
247 241 288 280 300 311 274 246 219 215 215 211 236 248 259 255 249 243 237 233 232 235 233 226 220 215 213 208 202 200 196 182 177 186 191 190 183 177 184 162 135 140 147 83
213 217 253 287 323 266 249 237 201 217 239 224 235 247 245 240 249 245 228 224 234 234 229 223 217 215 212 205 197 192 180 178 182 186 191 192 187 187 180 164 169 186 178 174
197 195 230 259 276 278 286 260 196 208 265 233 235 250 255 256 290 277 238 223 229 229 224 218 212 207 201 199 193 180 182 185 189 195 199 199 191 186 181 187 197 195 170 170
177 183 211 230 253 260 259 259 183 134 278 249 217 240 245 185 252 267 249 230 235 232 219 211 203 194 196 199 183 181 189 192 203 205 203 198 190 187 193 200 198 187 172 183
161 198 217 229 248 267 259 237 148 202 248 239 205 223 214 206 226 249 250 238 233 230 218 202 193 197 202 191 179 190 196 206 207 195 186 187 190 191 194 193 184 179 176 171
189 196 210 207 228 253 230 160 196 227 257 245 228 224 225 236 249 254 246 240 235 231 220 204 201 210 202 187 184 197 209 208 187 177 180 188 193 192 185 180 183 176 169 171
209 205 205 208 225 248 213 216 236 233 245 250 241 242 232 239 244 244 241 237 234 228 223 210 206 212 209 196 192 202 210 187 174 175 184 190 191 193 187 182 184 177 176 184
244 217 223 250 258 256 255 253 258 248 245 254 251 250 240 239 243 243 241 239 236 230 224 214 206 210 216 210 205 208 194 177 175 183 188 186 185 192 190 187 186 186 190 196
234 219 232 251 262 272 259 245 250 254 254 257 257 246 237 237 243 239 239 239 234 231 221 209 209 215 218 211 211 206 188 175 180 186 188 187 190 189 190 195 200 200 205 201
223 225 231 249 245 239 254 249 244 250 256 255 254 255 245 233 238 240 239 235 229 227 222 216 218 219 218 207 209 204 189 181 181 188 191 190 189 189 188 189 210 229 221 223
Height
1500 1503 1505 1504 1503 1503 1504 1506 1507 1503 1498 1499 1498 1495 1490 1487 1487 1487 1486 1486 1485 1484 1484 1484 1484 1483 1483 1483 1482 1481 1482 1482 1482 1482 1482 1482 1483 1484 1485 1486 1487 1488 1490 1491
1505 1506 1503 1501 1501 1502 1504 1506 1505 1502 1498 1498 1497 1493 1487 1484 1483 1483 1483 1482 1482 1481 1481 1481 1481 1480 1480 1480 1479 1479 1478 1478 1478 1478 1478 1479 1479 1480 1481 1482 1483 1484 1485 1487
1506 1506 1502 1502 1503 1503 1504 1506 1504 1503 1500 1497 1497 1493 1486 1481 1480 1480 1479 1479 1479 1478 1478 1478 1478 1477 1477 1477 1476 1476 1475 1474 1474 1475 1475 1475 1476 1476 1477 1478 1478 1480 1482 1483
1506 1504 1503 1503 1504 1504 1506 1502 1501 1501 1505 1506 1502 1502 1487 1482 1479 1477 1476 1476 1476 1476 1475 1475 1475 1474 1474 1474 1473 1473 1471 1470 1470 1471 1471 1472 1472 1472 1473 1474 1475 1476 1478 1480
1508 1505 1505 1505 1504 1503 1503 1501 1501 1501 1504 1506 1502 1503 1490 1482 1479 1475 1474 1474 1473 1473 1473 1473 1472 1472 1471 1471 1470 1469 1468 1467 1467 1467 1468 1468 1468 1469 1470 1471 1471 1473 1474 1476
1507 1505 1505 1505 1503 1503 1502 1503 1502 1504 1507 1508 1499 1501 1492 1484 1476 1472 1471 1471 1471 1471 1471 1470 1470 1469 1468 1468 1467 1466 1465 1465 1465 1465 1465 1465 1465 1466 1467 1468 1468 1469 1470 1472
1510 1506 1504 1504 1504 1504 1505 1510 1516 1513 1512 1506 1496 1497 1488 1475 1471 1469 1469 1469 1469 1469 1469 1468 1467 1467 1466 1465 1465 1464 1463 1462 1462 1462 1462 1462 1463 1463 1464 1465 1465 1466 1467 1469
1517 1515 1506 1504 1505 1506 1506 1509 1516 1516 1514 1506 1496 1493 1481 1471 1468 1467 1468 1468 1468 1467 1466 1466 1465 1464 1464 1463 1462 1462 1461 1460 1460 1459 1459 1460 1460 1461 1462 1462 1463 1464 1465 1466
1517 1515 1506 1504 1503 1504 1506 1509 1509 1513 1513 1509 1499 1489 1476 1470 1469 1468 1467 1467 1466 1465 1464 1464 1463 1463 1462 1461 1460 1460 1459 1458 1458 1457 1457 1457 1458 1459 1459 1460 1461 1461 1462 1463
1514 1516 1508 1504 1503 1503 1505 1506 1511 1512 1511 1506 1497 1490 1480 1471 1469 1468 1466 1465 1464 1464 1463 1462 1462 1461 1460 1460 1459 1458 1458 1457 1456 1456 1456 1456 1456 1457 1458 1458 1458 1459 1460 1461
1512 1516 1512 1507 1504 1503 1505 1506 1508 1512 1511 1510 1504 1488 1470 1467 1465 1465 1464 1463 1463 1462 1461 1461 1460 1459 1459 1458 1457 1457 1456 1456 1455 1455 1455 1455 1455 1456 1456 1456 1456 1457 1458 1458
1511 1515 1515 1508 1500 1499 1500 1501 1505 1510 1509 1508 1507 1488 1465 1463 1461 1462 1461 1461 1460 1460 1460 1459 1458 1458 1457 1456 1456 1455 1455 1455 1454 1454 1454 1454 1454 1454 1454 1454 1454 1455 1455 1456
1510 1514 1516 1507 1505 1501 1500 1498 1499 1503 1506 1507 1505 1483 1463 1462 1461 1460 1460 1459 1458 1458 1457 1457 1456 1456 1455 1454 1454 1453 1453 1453 1453 1453 1453 1453 1453 1453 1453 1453 1453 1453 1453 1453
1508 1512 1515 1508 1500 1499 1499 1497 1496 1500 1504 1501 1491 1475 1464 1461 1460 1458 1457 1456 1456 1455 1455 1454 1453 1453 1453 1453 1452 1452 1451 1452 1452 1452 1452 1452 1452 1452 1451 1451 1451 1451 1451 1451
1507 1510 1507 1502 1497 1496 1494 1491 1490 1492 1490 1490 1477 1471 1459 1457 1456 1455 1454 1453 1453 1452 1451 1451 1450 1450 1450 1450 1450 1450 1450 1450 1450 1450 1450 1450 1450 1450 1449 1449 1449 1449 1449 1449
1506 1506 1503 1498 1492 1491 1487 1480 1480 1479 1478 1475 1471 1463 1451 1452 1451 1451 1450 1449 1449 1448 1448 1447 1447 1447 1448 1448 1448 1448 1448 1448 1448 1448 1448 1449 1448 1448 1448 1448 1448 1448 1448 1447
1505 1505 1503 1500 1493 1489 1480 1467 1467 1468 1464 1465 1463 1454 1448 1449 1447 1446 1445 1445 1444 1444 1444 1444 1444 1444 1444 1445 1445 1445 1446 1446 1446 1446 1446 1447 1447 1446 1446 1446 1446 1446 1446 1446
1502 1503 1504 1502 1496 1487 1463 1456 1457 1458 1455 1454 1450 1446 1445 1444 1442 1441 1441 1440 1440 1440 1440 1440 1440 1441 1441 1442 1442 1443 1443 1443 1443 1444 1444 1444 1444 1444 1444 1444 1444 1444 1444 1444
1494 1498 1501 1501 1497 1480 1461 1453 1453 1455 1451 1444 1444 1442 1441 1441 1441 1438 1436 1436 1436 1436 1436 1436 1437 1437 1438 1439 1439 1440 1440 1440 1441 1441 1441 1442 1442 1442 1442 1442 1442 1442 1442 1442
1491 1494 1499 1498 1493 1478 1455 1450 1448 1451 1450 1438 1438 1438 1438 1439 1443 1435 1432 1432 1432 1432 1432 1433 1433 1434 1434 1435 1436 1437 1437 1437 1438 1438 1439 1439 1439 1440 1440 1440 1440 1440 1440 1440
1492 1494 1494 1493 1489 1470 1451 1447 1448 1454 1444 1434 1434 1434 1435 1435 1434 1431 1430 1429 1429 1429 1429 1429 1429 1430 1431 1432 1432 1433 1433 1434 1435 1435 1436 1436 1437 1437 1437 1438 1438 1438 1438 1438
1482 1485 1485 1485 1483 1465 1443 1445 1446 1440 1433 1432 1431 1431 1431 1429 1428 1427 1426 1426 1426 1425 1425 1426 1426 1426 1427 1428 1428 1428 1429 1430 1431 1432 1432 1433 1434 1434 1434 1435 1435 1436 1436 1435
1470 1466 1464 1463 1453 1440 1437 1435 1433 1433 1431 1429 1428 1427 1427 1425 1424 1424 1423 1422 1422 1422 1421 1421 1422 1422 1423 1423 1424 1424 1425 1427 1427 1428 1429 1430 1430 1431 1431 1432 1432 1432 1433 1432
1458 1454 1455 1452 1439 1434 1432 1430 1429 1429 1427 1425 1424 1423 1422 1421 1420 1419 1418 1418 1418 1417 1417 1417 1417 1417 1418 1418 1419 1420 1421 1422 1423 1424 1425 1426 1427 1427 1428 1428 1429 1429 1429 1429
1449 1448 1446 1441 1431 1428 1424 1423 1423 1422 1421 1420 1419 1418 1417 1416 1415 1414 1413 1413 1413 1413 1413 1412 1412 1412 1413 1414 1414 1416 1417 1418 1419 1420 1421 1422 1423 1423 1424 1424 1425 1425 1425 1426
1437 1437 1436 1427 1421 1421 1416 1416 1417 1416 1414 1414 1413 1411 1411 1410 1409 1408 1407 1407 1407 1407 1407 1407 1407 1407 1408 1408 1409 1411 1412 1413 1414 1415 1416 1417 1418 1419 1419 1420 1421 1421 1422 1422